SJV743 WIKK-WIII

Flight info

Callsign SJV743
Flight time 0h 50m
Altitude 33000
Route BOSLO W26 BUNIK
Aircraft A320/M-SDE3FGHIRWY/LB1

Departure

Time 2026-04-26 14:35
Airport Depati Amir Airport (WIKK)

Arrival

Time 2026-04-26 15:25
Airport Soekarno-Hatta International Airport (WIII)
Time Latitude Longitude Altitude Speed Heading
2026-04-26 14:16 -2.15789 106.14023 113 ft 0 kts 74°
2026-04-26 14:26 -2.15790 106.14019 112 ft 2 kts 74°
2026-04-26 14:26 -2.15794 106.14003 112 ft 3 kts 77°
2026-04-26 14:26 -2.15796 106.13984 110 ft 3 kts 109°
2026-04-26 14:27 -2.15787 106.13969 112 ft 3 kts 145°
2026-04-26 14:27 -2.15770 106.13960 111 ft 2 kts 164°
2026-04-26 14:27 -2.15762 106.13958 112 ft 1 kts 165°
2026-04-26 14:27 -2.15761 106.13958 112 ft 0 kts 165°
2026-04-26 14:30 -2.15781 106.13963 112 ft 6 kts 165°
2026-04-26 14:30 -2.15829 106.13976 112 ft 9 kts 165°
2026-04-26 14:30 -2.15900 106.13995 111 ft 12 kts 165°
2026-04-26 14:30 -2.15986 106.14017 112 ft 14 kts 165°
2026-04-26 14:31 -2.16084 106.14044 114 ft 15 kts 164°
2026-04-26 14:31 -2.16151 106.14064 116 ft 8 kts 163°
2026-04-26 14:31 -2.16208 106.14080 118 ft 13 kts 164°
2026-04-26 14:31 -2.16331 106.14114 119 ft 20 kts 164°
2026-04-26 14:32 -2.16451 106.14141 120 ft 14 kts 186°
2026-04-26 14:32 -2.16500 106.14056 120 ft 16 kts 255°
2026-04-26 14:32 -2.16559 106.13990 120 ft 14 kts 175°
2026-04-26 14:32 -2.16653 106.14015 127 ft 14 kts 165°
2026-04-26 14:33 -2.16759 106.14044 123 ft 18 kts 164°
2026-04-26 14:33 -2.16893 106.14081 119 ft 22 kts 165°
2026-04-26 14:33 -2.17018 106.14124 114 ft 15 kts 148°
2026-04-26 14:33 -2.17059 106.14131 115 ft 3 kts 275°
2026-04-26 14:34 -2.17032 106.14120 116 ft 6 kts 342°
2026-04-26 14:34 -2.16821 106.14061 122 ft 74 kts 345°
2026-04-26 14:34 -2.16052 106.13852 118 ft 150 kts 345°
2026-04-26 14:34 -2.14939 106.13579 657 ft 171 kts 347°
2026-04-26 14:35 -2.13758 106.13295 1570 ft 176 kts 347°
2026-04-26 14:35 -2.12502 106.13299 2361 ft 192 kts 17°
2026-04-26 14:35 -2.11362 106.14065 2674 ft 213 kts 53°
2026-04-26 14:35 -2.10898 106.15510 2942 ft 231 kts 91°
2026-04-26 14:36 -2.11486 106.17069 3209 ft 256 kts 131°
2026-04-26 14:36 -2.13029 106.18018 3739 ft 271 kts 168°
2026-04-26 14:36 -2.14887 106.17932 4516 ft 275 kts 197°
2026-04-26 14:36 -2.16664 106.17209 5354 ft 278 kts 208°
2026-04-26 14:37 -2.18369 106.16263 6180 ft 282 kts 211°
2026-04-26 14:37 -2.20112 106.15347 6954 ft 286 kts 199°
2026-04-26 14:37 -2.22094 106.15142 7661 ft 291 kts 173°
2026-04-26 14:37 -2.24084 106.15568 8394 ft 294 kts 166°
2026-04-26 14:38 -2.26104 106.15967 9128 ft 298 kts 169°
2026-04-26 14:38 -2.28166 106.16300 9840 ft 301 kts 170°
2026-04-26 14:38 -2.30269 106.16615 10283 ft 316 kts 170°
2026-04-26 14:38 -2.31743 106.16839 10390 ft 331 kts 170°
2026-04-26 14:39 -2.34890 106.17333 10810 ft 350 kts 169°
2026-04-26 14:39 -2.37284 106.17723 11392 ft 354 kts 169°
2026-04-26 14:39 -2.39723 106.18130 12030 ft 357 kts 168°
2026-04-26 14:39 -2.42176 106.18547 12676 ft 359 kts 168°
2026-04-26 14:40 -2.44645 106.18973 13287 ft 361 kts 168°
2026-04-26 14:40 -2.47137 106.19405 13876 ft 364 kts 168°
2026-04-26 14:40 -2.49638 106.19837 14453 ft 367 kts 168°
2026-04-26 14:40 -2.52165 106.20273 15021 ft 370 kts 168°
2026-04-26 14:41 -2.54710 106.20711 15584 ft 372 kts 168°
2026-04-26 14:41 -2.57270 106.21149 16130 ft 375 kts 168°
2026-04-26 14:41 -2.59852 106.21590 16668 ft 377 kts 168°
2026-04-26 14:41 -2.62446 106.22033 17173 ft 380 kts 168°
2026-04-26 14:42 -2.65058 106.22481 17675 ft 382 kts 168°
2026-04-26 14:42 -2.67650 106.22925 18172 ft 385 kts 168°
2026-04-26 14:42 -2.70296 106.23377 18652 ft 387 kts 168°
2026-04-26 14:42 -2.72966 106.23833 19093 ft 391 kts 168°
2026-04-26 14:43 -2.75664 106.24292 19533 ft 394 kts 168°
2026-04-26 14:43 -2.78380 106.24755 19970 ft 397 kts 168°
2026-04-26 14:43 -2.81120 106.25224 20397 ft 400 kts 168°
2026-04-26 14:43 -2.83880 106.25696 20807 ft 404 kts 168°
2026-04-26 14:44 -2.86658 106.26175 21238 ft 407 kts 168°
2026-04-26 14:44 -2.89461 106.26659 21651 ft 410 kts 168°
2026-04-26 14:44 -2.92282 106.27144 22039 ft 412 kts 168°
2026-04-26 14:44 -2.95078 106.27620 22411 ft 415 kts 168°
2026-04-26 14:45 -2.97975 106.28113 22771 ft 418 kts 168°
2026-04-26 14:45 -2.99880 106.28439 23001 ft 420 kts 168°
2026-04-26 14:45 -3.03714 106.29098 23474 ft 424 kts 168°
2026-04-26 14:45 -3.06625 106.29597 23823 ft 426 kts 168°
2026-04-26 14:46 -3.09560 106.30097 24157 ft 429 kts 168°
2026-04-26 14:46 -3.12505 106.30597 24511 ft 430 kts 168°
2026-04-26 14:46 -3.15463 106.31099 24847 ft 432 kts 168°
2026-04-26 14:46 -3.18439 106.31607 25170 ft 434 kts 168°
2026-04-26 14:47 -3.21423 106.32119 25493 ft 437 kts 168°
2026-04-26 14:47 -3.24423 106.32636 25820 ft 439 kts 168°
2026-04-26 14:47 -3.27440 106.33157 26113 ft 441 kts 168°
2026-04-26 14:47 -3.30475 106.33679 26410 ft 443 kts 168°
2026-04-26 14:48 -3.33520 106.34200 26703 ft 445 kts 168°
2026-04-26 14:48 -3.36580 106.34723 26990 ft 447 kts 168°
2026-04-26 14:48 -3.39654 106.35248 27273 ft 449 kts 168°
2026-04-26 14:48 -3.42741 106.35775 27555 ft 451 kts 168°
2026-04-26 14:49 -3.45842 106.36306 27828 ft 453 kts 168°
2026-04-26 14:49 -3.48910 106.36831 28104 ft 455 kts 168°
2026-04-26 14:49 -3.52043 106.37368 28385 ft 457 kts 168°
2026-04-26 14:49 -3.55182 106.37909 28663 ft 459 kts 168°
2026-04-26 14:50 -3.58333 106.38449 28939 ft 461 kts 168°
2026-04-26 14:50 -3.61497 106.38992 29203 ft 463 kts 168°
2026-04-26 14:50 -3.64674 106.39545 29475 ft 464 kts 167°
2026-04-26 14:50 -3.67862 106.40125 29735 ft 466 kts 167°
2026-04-26 14:51 -3.71056 106.40725 30001 ft 468 kts 167°
2026-04-26 14:51 -3.74254 106.41338 30388 ft 467 kts 166°
2026-04-26 14:51 -3.77443 106.41951 30786 ft 465 kts 167°
2026-04-26 14:51 -3.80622 106.42561 31179 ft 464 kts 167°
2026-04-26 14:52 -3.83798 106.43163 31570 ft 463 kts 167°
2026-04-26 14:52 -3.86967 106.43755 31969 ft 462 kts 167°
2026-04-26 14:52 -3.90124 106.44340 32377 ft 461 kts 167°
2026-04-26 14:52 -3.93231 106.44915 32776 ft 459 kts 167°
2026-04-26 14:53 -3.96371 106.45502 33177 ft 458 kts 167°
2026-04-26 14:53 -3.99507 106.46087 33582 ft 457 kts 167°
2026-04-26 14:53 -4.02636 106.46674 33846 ft 457 kts 167°
2026-04-26 14:54 -4.08894 106.47848 33906 ft 458 kts 167°
2026-04-26 14:54 -4.15157 106.49019 33905 ft 458 kts 167°
2026-04-26 14:55 -4.21432 106.50189 33906 ft 458 kts 167°
2026-04-26 14:55 -4.26638 106.51168 33906 ft 458 kts 167°
2026-04-26 14:56 -4.32903 106.52347 33907 ft 458 kts 167°
2026-04-26 14:56 -4.39172 106.53523 33911 ft 458 kts 167°
2026-04-26 14:57 -4.46464 106.54880 33915 ft 459 kts 167°
2026-04-26 14:57 -4.51727 106.55865 33917 ft 459 kts 167°
2026-04-26 14:58 -4.58003 106.57043 33918 ft 459 kts 167°
2026-04-26 14:58 -4.64257 106.58222 33920 ft 459 kts 167°
2026-04-26 14:59 -4.70542 106.59404 33920 ft 459 kts 168°
2026-04-26 14:59 -4.76821 106.60580 33922 ft 459 kts 168°
2026-04-26 15:00 -4.83063 106.61750 33897 ft 461 kts 168°
2026-04-26 15:00 -4.86234 106.62486 32979 ft 466 kts 161°
2026-04-26 15:00 -4.89267 106.63714 31919 ft 472 kts 153°
2026-04-26 15:00 -4.92190 106.65082 31463 ft 466 kts 153°
2026-04-26 15:01 -4.95127 106.66439 30866 ft 463 kts 153°
2026-04-26 15:01 -4.98053 106.67778 30284 ft 459 kts 153°
2026-04-26 15:01 -5.00956 106.69097 29698 ft 456 kts 153°
2026-04-26 15:01 -5.03834 106.70404 29116 ft 452 kts 153°
2026-04-26 15:02 -5.06690 106.71703 28538 ft 449 kts 153°
2026-04-26 15:02 -5.09513 106.72992 27969 ft 445 kts 153°
2026-04-26 15:02 -5.12318 106.74274 27403 ft 441 kts 153°
2026-04-26 15:02 -5.15094 106.75543 26846 ft 437 kts 153°
2026-04-26 15:03 -5.17845 106.76801 26296 ft 432 kts 153°
2026-04-26 15:03 -5.20559 106.78039 25968 ft 423 kts 153°
2026-04-26 15:03 -5.23221 106.79246 25458 ft 419 kts 154°
2026-04-26 15:03 -5.25870 106.80443 24923 ft 416 kts 154°
2026-04-26 15:04 -5.28497 106.81628 24410 ft 412 kts 154°
2026-04-26 15:04 -5.31073 106.82790 23928 ft 408 kts 154°
2026-04-26 15:04 -5.33644 106.83953 23470 ft 404 kts 154°
2026-04-26 15:04 -5.36199 106.85113 22899 ft 403 kts 154°
2026-04-26 15:05 -5.38744 106.86269 22502 ft 398 kts 154°
2026-04-26 15:05 -5.40452 106.87045 22070 ft 399 kts 154°
2026-04-26 15:05 -5.43782 106.88524 21434 ft 395 kts 159°
2026-04-26 15:05 -5.46435 106.89135 21155 ft 388 kts 173°
2026-04-26 15:06 -5.49104 106.89121 20960 ft 380 kts 185°
2026-04-26 15:06 -5.51662 106.88510 20525 ft 378 kts 198°
2026-04-26 15:06 -5.54117 106.87569 20041 ft 376 kts 199°
2026-04-26 15:06 -5.56549 106.86626 19575 ft 374 kts 199°
2026-04-26 15:07 -5.61362 106.84759 18663 ft 368 kts 199°
2026-04-26 15:07 -5.63745 106.83839 18218 ft 365 kts 199°
2026-04-26 15:07 -5.66112 106.82928 17765 ft 362 kts 199°
2026-04-26 15:08 -5.68461 106.82023 17315 ft 360 kts 199°
2026-04-26 15:08 -5.70791 106.81123 16860 ft 357 kts 199°
2026-04-26 15:08 -5.73099 106.80231 16415 ft 355 kts 199°
2026-04-26 15:08 -5.75395 106.79344 15974 ft 352 kts 199°
2026-04-26 15:09 -5.77672 106.78465 15525 ft 349 kts 199°
2026-04-26 15:09 -5.79934 106.77593 15079 ft 347 kts 199°
2026-04-26 15:09 -5.82156 106.76739 14653 ft 345 kts 199°
2026-04-26 15:09 -5.84346 106.75767 14225 ft 344 kts 209°
2026-04-26 15:10 -5.86229 106.74303 13793 ft 344 kts 225°
2026-04-26 15:10 -5.87236 106.73072 13533 ft 343 kts 235°
2026-04-26 15:10 -5.88609 106.70194 12967 ft 342 kts 248°
2026-04-26 15:10 -5.89483 106.67980 12549 ft 340 kts 248°
2026-04-26 15:11 -5.90355 106.65783 12148 ft 337 kts 247°
2026-04-26 15:11 -5.91225 106.63602 11814 ft 333 kts 247°
2026-04-26 15:11 -5.92076 106.61475 11688 ft 322 kts 247°
2026-04-26 15:11 -5.92899 106.59419 11559 ft 313 kts 247°
2026-04-26 15:12 -5.93703 106.57414 11381 ft 305 kts 247°
2026-04-26 15:12 -5.94497 106.55453 11096 ft 302 kts 247°
2026-04-26 15:12 -5.95290 106.53512 10619 ft 298 kts 247°
2026-04-26 15:12 -5.96078 106.51592 10036 ft 296 kts 247°
2026-04-26 15:13 -5.96851 106.49711 9459 ft 294 kts 247°
2026-04-26 15:13 -5.97627 106.47819 8880 ft 292 kts 248°
2026-04-26 15:13 -5.98390 106.45945 8409 ft 286 kts 248°
2026-04-26 15:13 -5.99135 106.44116 8233 ft 284 kts 248°
2026-04-26 15:14 -5.99883 106.42282 8016 ft 284 kts 248°
2026-04-26 15:14 -6.00631 106.40450 7788 ft 283 kts 248°
2026-04-26 15:14 -6.01376 106.38623 7564 ft 281 kts 248°
2026-04-26 15:14 -6.02111 106.36809 7342 ft 279 kts 248°
2026-04-26 15:15 -6.02835 106.35027 7228 ft 271 kts 247°
2026-04-26 15:15 -6.03611 106.33338 7113 ft 262 kts 234°
2026-04-26 15:15 -6.04916 106.32157 7000 ft 250 kts 205°
2026-04-26 15:15 -6.06568 106.31754 6750 ft 244 kts 176°
2026-04-26 15:16 -6.08234 106.31998 6501 ft 240 kts 168°
2026-04-26 15:16 -6.09851 106.32291 6261 ft 237 kts 169°
2026-04-26 15:16 -6.11461 106.32579 6022 ft 233 kts 169°
2026-04-26 15:16 -6.13046 106.32862 5790 ft 230 kts 169°
2026-04-26 15:17 -6.14620 106.33142 5560 ft 229 kts 169°
2026-04-26 15:17 -6.15679 106.33330 5396 ft 227 kts 169°
2026-04-26 15:17 -6.17731 106.33693 5170 ft 222 kts 169°
2026-04-26 15:17 -6.19247 106.33972 5082 ft 220 kts 163°
2026-04-26 15:18 -6.20600 106.34657 4984 ft 218 kts 139°
2026-04-26 15:18 -6.21552 106.35823 4798 ft 216 kts 120°
2026-04-26 15:18 -6.22340 106.37106 4615 ft 216 kts 121°
2026-04-26 15:18 -6.23120 106.38391 4442 ft 215 kts 117°
2026-04-26 15:19 -6.23561 106.39811 4265 ft 211 kts 95°
2026-04-26 15:19 -6.23447 106.41230 4098 ft 205 kts 73°
2026-04-26 15:19 -6.22940 106.42558 3933 ft 199 kts 68°
2026-04-26 15:19 -6.22431 106.43838 3780 ft 194 kts 69°
2026-04-26 15:20 -6.21934 106.45096 3617 ft 192 kts 68°
2026-04-26 15:20 -6.21441 106.46338 3467 ft 191 kts 69°
2026-04-26 15:20 -6.20951 106.47574 3320 ft 188 kts 69°
2026-04-26 15:20 -6.20455 106.48811 3222 ft 193 kts 68°
2026-04-26 15:21 -6.19973 106.50023 3032 ft 183 kts 68°
2026-04-26 15:21 -6.19507 106.51191 2786 ft 181 kts 69°
2026-04-26 15:21 -6.19042 106.52354 2548 ft 177 kts 69°
2026-04-26 15:21 -6.18583 106.53505 2316 ft 175 kts 69°
2026-04-26 15:22 -6.18139 106.54621 2100 ft 167 kts 69°
2026-04-26 15:22 -6.17726 106.55656 1884 ft 154 kts 69°
2026-04-26 15:22 -6.17338 106.56630 1683 ft 148 kts 69°
2026-04-26 15:22 -6.16957 106.57587 1476 ft 147 kts 69°
2026-04-26 15:23 -6.16577 106.58540 1290 ft 147 kts 69°
2026-04-26 15:23 -6.16203 106.59478 1092 ft 147 kts 69°
2026-04-26 15:23 -6.15823 106.60430 903 ft 147 kts 69°
2026-04-26 15:23 -6.15444 106.61381 698 ft 146 kts 69°
2026-04-26 15:24 -6.15068 106.62326 513 ft 145 kts 69°
2026-04-26 15:24 -6.14694 106.63267 318 ft 145 kts 69°
2026-04-26 15:24 -6.14323 106.64206 134 ft 144 kts 69°
2026-04-26 15:24 -6.13958 106.65116 38 ft 126 kts 67°
2026-04-26 15:25 -6.13706 106.65741 39 ft 61 kts 68°
2026-04-26 15:25 -6.13619 106.65958 39 ft 45 kts 68°
2026-04-26 15:25 -6.13451 106.66243 41 ft 28 kts 41°
2026-04-26 15:25 -6.13351 106.66304 40 ft 14 kts
2026-04-26 15:26 -6.13256 106.66275 39 ft 13 kts 334°
2026-04-26 15:26 -6.13231 106.66192 38 ft 15 kts 249°
2026-04-26 15:26 -6.13273 106.66090 38 ft 17 kts 248°
2026-04-26 15:26 -6.13322 106.65968 38 ft 20 kts 248°
2026-04-26 15:27 -6.13378 106.65828 38 ft 23 kts 248°
2026-04-26 15:27 -6.13436 106.65681 38 ft 21 kts 248°
2026-04-26 15:27 -6.13495 106.65534 38 ft 24 kts 248°
2026-04-26 15:27 -6.13560 106.65371 37 ft 26 kts 248°
2026-04-26 15:28 -6.13631 106.65194 38 ft 28 kts 248°
2026-04-26 15:28 -6.13678 106.65074 38 ft 10 kts 256°
2026-04-26 15:28 -6.13637 106.65017 38 ft 12 kts 335°
2026-04-26 15:28 -6.13550 106.64982 37 ft 16 kts 339°
2026-04-26 15:29 -6.13413 106.64928 38 ft 25 kts 338°
2026-04-26 15:29 -6.13243 106.64860 38 ft 27 kts 338°
2026-04-26 15:29 -6.12904 106.64725 51 ft 24 kts 338°
2026-04-26 15:30 -6.12692 106.64701 38 ft 16 kts 59°
2026-04-26 15:30 -6.12647 106.64808 38 ft 17 kts 68°
2026-04-26 15:30 -6.12596 106.64869 38 ft 10 kts 13°
2026-04-26 15:31 -6.12543 106.64857 38 ft 7 kts 341°
2026-04-26 15:31 -6.12477 106.64802 38 ft 6 kts 270°
2026-04-26 15:31 -6.12485 106.64775 38 ft 3 kts 250°
2026-04-26 15:32 -6.12490 106.64760 38 ft 0 kts 250°